Regional Weather Roundup
Issued by NWS Goodland, KS

Home | Current Version | Previous Version | Graphics & Text | Print | Product List | Glossary On
Versions: 1 2 3 4 5 6 7 8 9 10 11 12 13 14 15 16 17 18 19 20 21 22 23 24 25 26 27 28 29 30 31 32 33 34 35 36 37 38 39 40 41 42 43 44 45 46 47 48 49 50
000
ASUS43 KGLD 262159
RWRGLD

GOODLAND FORECAST AREA HOURLY WEATHER ROUNDUP
NATIONAL WEATHER SERVICE GOODLAND KS
300 PM MST WED NOV 26 2014

...OFFICIAL OBSERVATIONS...

CITY           SKY/WX    TMP DP  RH WIND       PRES   REMARKS
GOODLAND KS    CLOUDY    36  26  67 NW5       30.28R
HILL CITY KS   CLOUDY    38  18  44 NW16      30.31R
IMPERIAL NEB   LGT SNOW  32  26  78 W5        30.28S
MCCOOK NEB     CLOUDY    37  19  48 NW13      30.30R
AKRON CO       CLOUDY    30  24  78 SE5       30.23R
BURLINGTON CO  MOSUNNY   35  24  64 CALM      30.26R
LIMON CO       SUNNY     41  25  53 S14       30.18R
$$

...UNOFFICIAL OBSERVATIONS...

CITY           SKY/WX    TMP DP  RH WIND       PRES   REMARKS
COLBY KS       CLOUDY    37  27  65 NW12      30.30R
NORTON KS      CLOUDY    37  16  41 NW13      30.29R
TRIBUNE KS     SUNNY     41  28  60 N5        30.29R
TRENTON NEB      N/A     35  32  89 NW10        N/A
$$


USA.gov is the U.S. government's official web portal to all federal, state and local government web resources and services.